| time (UTC) | temp C | wind direction | speed KPH | gust KPH | rain 1hr cm | rain 24hr cm | rain mn cm | humidity % | barometer mb |
| 20260508232006 | 15 | 309 | 0.0 | 3.2 | 0.00 | 0.00 | 0.00 | 65 | 1009.6 |
| 20260508231522 | 16 | 279 | 1.6 | 3.2 | 0.00 | 0.00 | 0.00 | 63 | 1009.6 |
| 20260508231004 | 16 | 279 | 1.6 | 3.2 | 0.00 | 0.00 | 0.00 | 62 | 1009.6 |
| 20260508230503 | 16 | 259 | 0.0 | 0.0 | 0.00 | 0.00 | 0.00 | 65 | 1009.4 |
| 20260508230017 | 16 | 259 | 0.0 | 0.0 | 0.00 | 0.00 | 0.00 | 63 | 1009.3 |
| 20260508225503 | 16 | 259 | 0.0 | 1.6 | 0.00 | 0.00 | 0.00 | 60 | 1009.3 |
| 20260508225004 | 16 | 259 | 0.0 | 1.6 | 0.00 | 0.00 | 0.00 | 59 | 1009.4 |
| 20260508224534 | 16 | 259 | 0.0 | 0.0 | 0.00 | 0.00 | 0.00 | 60 | 1009.3 |
| 20260508224003 | 16 | 259 | 0.0 | 0.0 | 0.00 | 0.00 | 0.00 | 56 | 1009.3 |
| 20260508223506 | 16 | 259 | 0.0 | 3.2 | 0.00 | 0.00 | 0.00 | 56 | 1009.3 |
| 20260508223023 | 16 | 259 | 0.0 | 3.2 | 0.00 | 0.00 | 0.00 | 55 | 1009.3 |
| 20260508222507 | 16 | 238 | 1.6 | 3.2 | 0.00 | 0.00 | 0.00 | 54 | 1009.4 |
| 20260508222010 | 16 | 254 | 0.0 | 3.2 | 0.00 | 0.00 | 0.00 | 56 | 1009.3 |
| 20260508221510 | 17 | 259 | 0.0 | 3.2 | 0.00 | 0.00 | 0.00 | 53 | 1009.3 |
| 20260508221007 | 17 | 333 | 0.0 | 4.8 | 0.00 | 0.00 | 0.00 | 53 | 1009.3 |
| 20260508220508 | 17 | 257 | 0.0 | 4.8 | 0.00 | 0.00 | 0.00 | 54 | 1009.4 |
| 20260508220004 | 17 | 245 | 3.2 | 6.4 | 0.00 | 0.00 | 0.00 | 50 | 1009.3 |
| 20260508215504 | 17 | 247 | 3.2 | 9.7 | 0.00 | 0.00 | 0.00 | 52 | 1009.3 |
| 20260508215004 | 17 | 239 | 4.8 | 9.7 | 0.00 | 0.00 | 0.00 | 50 | 1009.3 |
| 20260508214512 | 17 | 234 | 4.8 | 9.7 | 0.00 | 0.00 | 0.00 | 49 | 1009.2 |
| 20260508214007 | 17 | 231 | 6.4 | 11.3 | 0.00 | 0.00 | 0.00 | 49 | 1009.3 |
| 20260508213503 | 17 | 229 | 6.4 | 14.5 | 0.00 | 0.00 | 0.00 | 46 | 1009.3 |
| 20260508213013 | 17 | 217 | 6.4 | 14.5 | 0.00 | 0.00 | 0.00 | 47 | 1009.4 |
| 20260508212503 | 17 | 217 | 6.4 | 14.5 | 0.00 | 0.00 | 0.00 | 46 | 1009.5 |
| 20260508212004 | 17 | 225 | 9.7 | 14.5 | 0.00 | 0.00 | 0.00 | 46 | 1009.6 |
| 20260508211525 | 17 | 225 | 8.0 | 16.1 | 0.00 | 0.00 | 0.00 | 45 | 1009.7 |
| 20260508211007 | 18 | 238 | 9.7 | 19.3 | 0.00 | 0.00 | 0.00 | 45 | 1009.9 |
| 20260508210506 | 18 | 223 | 12.9 | 19.3 | 0.00 | 0.00 | 0.00 | 43 | 1009.8 |
| 20260508210018 | 18 | 215 | 12.9 | 22.5 | 0.00 | 0.00 | 0.00 | 43 | 1009.8 |
| 20260508205513 | 18 | 250 | 12.9 | 22.5 | 0.00 | 0.00 | 0.00 | 43 | 1010.0 |
| 20260508205005 | 18 | 231 | 14.5 | 22.5 | 0.00 | 0.00 | 0.00 | 42 | 1009.9 |
| 20260508204515 | 18 | 262 | 12.9 | 19.3 | 0.00 | 0.00 | 0.00 | 44 | 1010.0 |
| 20260508204004 | 18 | 231 | 11.3 | 19.3 | 0.00 | 0.00 | 0.00 | 44 | 1010.0 |
| 20260508203504 | 18 | 238 | 12.9 | 24.1 | 0.00 | 0.00 | 0.00 | 42 | 1009.9 |
| 20260508203012 | 18 | 226 | 12.9 | 27.4 | 0.00 | 0.00 | 0.00 | 42 | 1009.9 |
| 20260508202504 | 18 | 234 | 17.7 | 27.4 | 0.00 | 0.00 | 0.00 | 42 | 1010.1 |
| 20260508202006 | 18 | 231 | 16.1 | 24.1 | 0.00 | 0.00 | 0.00 | 41 | 1010.1 |
| 20260508201510 | 18 | 243 | 12.9 | 30.6 | 0.00 | 0.00 | 0.00 | 43 | 1010.1 |
| 20260508201007 | 18 | 238 | 17.7 | 30.6 | 0.00 | 0.00 | 0.00 | 40 | 1010.1 |
| 20260508200505 | 18 | 223 | 20.9 | 30.6 | 0.00 | 0.00 | 0.00 | 40 | 1010.2 |
| 20260508200022 | 18 | 199 | 16.1 | 30.6 | 0.00 | 0.00 | 0.00 | 39 | 1010.2 |
| 20260508195504 | 18 | 208 | 19.3 | 32.2 | 0.00 | 0.00 | 0.00 | 39 | 1010.1 |
| 20260508195007 | 18 | 237 | 19.3 | 32.2 | 0.00 | 0.00 | 0.00 | 40 | 1010.2 |
| 20260508194522 | 19 | 242 | 20.9 | 30.6 | 0.00 | 0.00 | 0.00 | 39 | 1010.3 |
| 20260508194005 | 19 | 250 | 17.7 | 29.0 | 0.00 | 0.00 | 0.00 | 40 | 1010.4 |
| 20260508193504 | 20 | 194 | 17.7 | 35.4 | 0.00 | 0.00 | 0.00 | 41 | 1010.4 |
| 20260508193012 | 20 | 213 | 19.3 | 35.4 | 0.00 | 0.00 | 0.00 | 41 | 1010.4 |
| 20260508192505 | 20 | 201 | 22.5 | 33.8 | 0.00 | 0.00 | 0.00 | 39 | 1010.7 |
| 20260508192003 | 19 | 217 | 24.1 | 33.8 | 0.00 | 0.00 | 0.00 | 44 | 1010.7 |
| 20260508191516 | 18 | 241 | 17.7 | 33.8 | 0.00 | 0.00 | 0.00 | 41 | 1010.9 |
| 20260508191008 | 19 | 259 | 24.1 | 35.4 | 0.00 | 0.00 | 0.00 | 39 | 1011.0 |
| 20260508190504 | 19 | 246 | 24.1 | 35.4 | 0.00 | 0.00 | 0.00 | 40 | 1011.1 |
| 20260508190030 | 18 | 237 | 19.3 | 37.0 | 0.00 | 0.00 | 0.00 | 41 | 1011.1 |
| 20260508185508 | 18 | 223 | 25.7 | 37.0 | 0.00 | 0.00 | 0.00 | 39 | 1011.1 |
| 20260508185009 | 18 | 209 | 24.1 | 37.0 | 0.00 | 0.00 | 0.00 | 41 | 1011.2 |
| 20260508184514 | 18 | 223 | 22.5 | 37.0 | 0.00 | 0.00 | 0.00 | 41 | 1011.3 |
| 20260508184008 | 18 | 226 | 20.9 | 30.6 | 0.00 | 0.00 | 0.00 | 44 | 1011.4 |
| 20260508183511 | 17 | 217 | 19.3 | 30.6 | 0.00 | 0.00 | 0.00 | 43 | 1011.4 |
| 20260508183011 | 17 | 240 | 22.5 | 30.6 | 0.00 | 0.00 | 0.00 | 44 | 1011.5 |
| 20260508182502 | 17 | 238 | 22.5 | 29.0 | 0.00 | 0.00 | 0.00 | 43 | 1011.5 |
| 20260508182006 | 17 | 241 | 17.7 | 27.4 | 0.00 | 0.00 | 0.00 | 45 | 1011.5 |
| 20260508181521 | 17 | 233 | 19.3 | 29.0 | 0.00 | 0.00 | 0.00 | 45 | 1011.5 |
| 20260508181003 | 17 | 210 | 17.7 | 29.0 | 0.00 | 0.00 | 0.00 | 44 | 1011.5 |
| 20260508180503 | 17 | 237 | 17.7 | 29.0 | 0.00 | 0.00 | 0.00 | 44 | 1011.6 |
| 20260508180006 | 18 | 232 | 16.1 | 32.2 | 0.00 | 0.00 | 0.00 | 43 | 1011.7 |
| 20260508175503 | 18 | 240 | 20.9 | 32.2 | 0.00 | 0.00 | 0.00 | 44 | 1011.8 |
| 20260508175004 | 19 | 219 | 19.3 | 30.6 | 0.00 | 0.00 | 0.00 | 43 | 1011.8 |
| 20260508174505 | 18 | 218 | 24.1 | 30.6 | 0.00 | 0.00 | 0.00 | 44 | 1011.9 |
| 20260508174002 | 18 | 244 | 20.9 | 32.2 | 0.00 | 0.00 | 0.00 | 41 | 1012.1 |
| 20260508173502 | 18 | 221 | 20.9 | 32.2 | 0.00 | 0.00 | 0.00 | 41 | 1012.1 |
| 20260508173005 | 19 | 238 | 20.9 | 30.6 | 0.00 | 0.00 | 0.00 | 44 | 1012.2 |
| 20260508172503 | 18 | 250 | 20.9 | 32.2 | 0.00 | 0.00 | 0.00 | 44 | 1012.5 |
| 20260508172002 | 18 | 248 | 17.7 | 32.2 | 0.00 | 0.00 | 0.00 | 46 | 1012.5 |
| 20260508171510 | 18 | 242 | 17.7 | 30.6 | 0.00 | 0.00 | 0.00 | 46 | 1012.6 |
| 20260508171001 | 18 | 240 | 19.3 | 30.6 | 0.00 | 0.00 | 0.00 | 45 | 1012.6 |
| 20260508170502 | 18 | 272 | 19.3 | 30.6 | 0.00 | 0.00 | 0.00 | 46 | 1012.8 |
| 20260508170006 | 18 | 248 | 12.9 | 30.6 | 0.00 | 0.00 | 0.00 | 47 | 1012.7 |
| 20260508165501 | 18 | 241 | 17.7 | 29.0 | 0.00 | 0.00 | 0.00 | 45 | 1012.9 |
| 20260508165002 | 17 | 242 | 17.7 | 30.6 | 0.00 | 0.00 | 0.00 | 46 | 1012.8 |
| 20260508164506 | 17 | 250 | 19.3 | 30.6 | 0.00 | 0.00 | 0.00 | 46 | 1012.9 |
| 20260508164002 | 17 | 259 | 14.5 | 33.8 | 0.00 | 0.00 | 0.00 | 50 | 1012.9 |
| 20260508163501 | 18 | 221 | 19.3 | 33.8 | 0.00 | 0.00 | 0.00 | 46 | 1013.0 |
| 20260508163005 | 17 | 215 | 17.7 | 33.8 | 0.00 | 0.00 | 0.00 | 46 | 1013.0 |
| 20260508162502 | 17 | 230 | 19.3 | 32.2 | 0.00 | 0.00 | 0.00 | 48 | 1013.1 |
| 20260508162001 | 17 | 201 | 19.3 | 30.6 | 0.00 | 0.00 | 0.00 | 50 | 1013.3 |
| 20260508161506 | 16 | 215 | 19.3 | 32.2 | 0.00 | 0.00 | 0.00 | 51 | 1013.4 |
| 20260508161001 | 16 | 211 | 19.3 | 32.2 | 0.00 | 0.00 | 0.00 | 49 | 1013.4 |
| 20260508160501 | 16 | 229 | 17.7 | 25.7 | 0.00 | 0.00 | 0.00 | 52 | 1013.5 |
| 20260508160007 | 16 | 220 | 17.7 | 33.8 | 0.00 | 0.00 | 0.00 | 51 | 1013.6 |
| 20260508155502 | 17 | 242 | 20.9 | 33.8 | 0.00 | 0.00 | 0.00 | 50 | 1013.5 |
| 20260508155002 | 16 | 211 | 19.3 | 32.2 | 0.00 | 0.00 | 0.00 | 52 | 1013.4 |
| 20260508154507 | 16 | 220 | 20.9 | 32.2 | 0.00 | 0.00 | 0.00 | 51 | 1013.4 |
| 20260508154001 | 15 | 211 | 17.7 | 27.4 | 0.00 | 0.00 | 0.00 | 51 | 1013.5 |
| 20260508153502 | 15 | 206 | 16.1 | 29.0 | 0.00 | 0.00 | 0.00 | 54 | 1013.5 |
| 20260508153006 | 15 | 234 | 16.1 | 29.0 | 0.00 | 0.00 | 0.00 | 52 | 1013.6 |
| 20260508152502 | 15 | 228 | 16.1 | 24.1 | 0.00 | 0.00 | 0.00 | 53 | 1013.6 |
| 20260508152004 | 15 | 234 | 11.3 | 25.7 | 0.00 | 0.00 | 0.00 | 55 | 1013.7 |
| 20260508151517 | 15 | 234 | 16.1 | 24.1 | 0.00 | 0.00 | 0.00 | 51 | 1013.8 |
| 20260508151006 | 15 | 200 | 12.9 | 32.2 | 0.00 | 0.00 | 0.00 | 54 | 1013.9 |
| 20260508150502 | 15 | 241 | 25.7 | 33.8 | 0.00 | 0.00 | 0.00 | 50 | 1013.9 |
| 20260508150012 | 15 | 234 | 20.9 | 33.8 | 0.00 | 0.00 | 0.00 | 51 | 1013.9 |
| 20260508145502 | 15 | 244 | 22.5 | 32.2 | 0.00 | 0.00 | 0.00 | 52 | 1013.9 |
| 20260508145003 | 15 | 228 | 16.1 | 32.2 | 0.00 | 0.00 | 0.00 | 53 | 1013.9 |
| 20260508144510 | 15 | 265 | 17.7 | 27.4 | 0.00 | 0.00 | 0.00 | 54 | 1013.9 |
| 20260508144003 | 15 | 236 | 19.3 | 30.6 | 0.00 | 0.00 | 0.00 | 53 | 1014.0 |
| 20260508143503 | 15 | 222 | 22.5 | 30.6 | 0.00 | 0.00 | 0.00 | 52 | 1014.0 |
| 20260508143006 | 15 | 241 | 16.1 | 27.4 | 0.00 | 0.00 | 0.00 | 53 | 1014.0 |
| 20260508142502 | 14 | 238 | 16.1 | 30.6 | 0.00 | 0.00 | 0.00 | 52 | 1014.0 |
| 20260508142002 | 14 | 259 | 16.1 | 30.6 | 0.00 | 0.00 | 0.00 | 55 | 1014.0 |
| 20260508141512 | 14 | 257 | 16.1 | 25.7 | 0.00 | 0.00 | 0.00 | 55 | 1013.9 |
| 20260508141003 | 13 | 225 | 19.3 | 25.7 | 0.00 | 0.00 | 0.00 | 55 | 1013.9 |
| 20260508140502 | 13 | 207 | 14.5 | 27.4 | 0.00 | 0.00 | 0.00 | 57 | 1014.1 |
| 20260508140011 | 13 | 256 | 16.1 | 30.6 | 0.00 | 0.00 | 0.00 | 55 | 1014.1 |
| 20260508135503 | 13 | 243 | 16.1 | 30.6 | 0.00 | 0.00 | 0.00 | 57 | 1014.1 |
| 20260508135002 | 13 | 232 | 16.1 | 30.6 | 0.00 | 0.00 | 0.00 | 55 | 1014.1 |
| 20260508134511 | 12 | 229 | 14.5 | 24.1 | 0.00 | 0.00 | 0.00 | 56 | 1014.2 |
| 20260508134005 | 12 | 241 | 14.5 | 24.1 | 0.00 | 0.00 | 0.00 | 56 | 1014.3 |
| 20260508133502 | 12 | 245 | 14.5 | 27.4 | 0.00 | 0.00 | 0.00 | 56 | 1014.2 |
| 20260508133010 | 12 | 228 | 17.7 | 27.4 | 0.00 | 0.00 | 0.00 | 57 | 1014.2 |
| 20260508132503 | 12 | 242 | 17.7 | 27.4 | 0.00 | 0.00 | 0.00 | 59 | 1014.1 |
| 20260508132002 | 12 | 239 | 16.1 | 25.7 | 0.00 | 0.00 | 0.00 | 58 | 1014.1 |
| 20260508131512 | 11 | 235 | 17.7 | 27.4 | 0.00 | 0.00 | 0.00 | 59 | 1014.1 |
| 20260508131006 | 11 | 215 | 17.7 | 27.4 | 0.00 | 0.00 | 0.00 | 59 | 1014.1 |
| 20260508130503 | 11 | 236 | 14.5 | 24.1 | 0.00 | 0.00 | 0.00 | 61 | 1014.0 |
| 20260508130012 | 11 | 226 | 16.1 | 27.4 | 0.00 | 0.00 | 0.00 | 61 | 1014.0 |
| 20260508125506 | 11 | 207 | 16.1 | 27.4 | 0.00 | 0.00 | 0.00 | 63 | 1014.0 |
| 20260508125003 | 11 | 240 | 16.1 | 22.5 | 0.00 | 0.00 | 0.00 | 63 | 1014.0 |
| 20260508124521 | 10 | 222 | 12.9 | 20.9 | 0.00 | 0.00 | 0.00 | 65 | 1014.0 |
| 20260508124002 | 10 | 208 | 11.3 | 16.1 | 0.00 | 0.00 | 0.00 | 68 | 1014.0 |
| 20260508123502 | 9 | 219 | 9.7 | 17.7 | 0.00 | 0.00 | 0.00 | 68 | 1014.1 |
| 20260508123013 | 9 | 219 | 9.7 | 19.3 | 0.00 | 0.00 | 0.00 | 67 | 1014.1 |
| 20260508122505 | 9 | 216 | 11.3 | 19.3 | 0.00 | 0.00 | 0.00 | 67 | 1014.1 |
| 20260508122007 | 9 | 183 | 9.7 | 17.7 | 0.00 | 0.00 | 0.00 | 67 | 1014.1 |
| 20260508121513 | 9 | 234 | 11.3 | 17.7 | 0.00 | 0.00 | 0.00 | 66 | 1014.1 |
| 20260508121005 | 9 | 213 | 11.3 | 17.7 | 0.00 | 0.00 | 0.00 | 66 | 1014.0 |
| 20260508120505 | 9 | 218 | 11.3 | 17.7 | 0.00 | 0.00 | 0.00 | 68 | 1014.0 |
| 20260508120011 | 9 | 205 | 9.7 | 14.5 | 0.00 | 0.00 | 0.00 | 69 | 1013.9 |
| 20260508115503 | 8 | 215 | 11.3 | 14.5 | 0.00 | 0.00 | 0.00 | 69 | 1013.9 |
| 20260508115002 | 8 | 208 | 8.0 | 17.7 | 0.00 | 0.00 | 0.00 | 70 | 1013.9 |
| 20260508114513 | 8 | 225 | 8.0 | 17.7 | 0.00 | 0.00 | 0.00 | 70 | 1013.9 |
| 20260508114006 | 8 | 229 | 8.0 | 12.9 | 0.00 | 0.00 | 0.00 | 71 | 1013.9 |
| 20260508113505 | 8 | 211 | 8.0 | 12.9 | 0.00 | 0.00 | 0.00 | 71 | 1013.9 |
| 20260508113016 | 7 | 213 | 9.7 | 12.9 | 0.00 | 0.00 | 0.00 | 71 | 1013.8 |
| 20260508112504 | 7 | 209 | 9.7 | 12.9 | 0.00 | 0.00 | 0.00 | 71 | 1013.8 |
| 20260508112004 | 7 | 213 | 8.0 | 12.9 | 0.00 | 0.00 | 0.00 | 71 | 1013.6 |
| 20260508111513 | 7 | 203 | 9.7 | 12.9 | 0.00 | 0.00 | 0.00 | 72 | 1013.6 |
| 20260508111004 | 7 | 215 | 9.7 | 12.9 | 0.00 | 0.00 | 0.00 | 72 | 1013.6 |
| 20260508110503 | 7 | 209 | 8.0 | 12.9 | 0.00 | 0.00 | 0.00 | 72 | 1013.6 |
| 20260508110018 | 7 | 236 | 8.0 | 12.9 | 0.00 | 0.00 | 0.00 | 72 | 1013.6 |
| 20260508105506 | 6 | 212 | 6.4 | 9.7 | 0.00 | 0.00 | 0.00 | 74 | 1013.6 |
| 20260508105003 | 6 | 218 | 6.4 | 9.7 | 0.00 | 0.00 | 0.00 | 74 | 1013.5 |
| 20260508104514 | 6 | 209 | 6.4 | 9.7 | 0.00 | 0.00 | 0.00 | 74 | 1013.4 |
| 20260508104003 | 6 | 207 | 6.4 | 9.7 | 0.00 | 0.00 | 0.00 | 74 | 1013.4 |
| 20260508103506 | 6 | 207 | 8.0 | 9.7 | 0.00 | 0.00 | 0.00 | 74 | 1013.4 |
| 20260508103015 | 6 | 210 | 6.4 | 11.3 | 0.00 | 0.00 | 0.00 | 74 | 1013.4 |
| 20260508102504 | 6 | 218 | 6.4 | 11.3 | 0.00 | 0.00 | 0.00 | 73 | 1013.5 |
| 20260508102004 | 6 | 210 | 6.4 | 11.3 | 0.00 | 0.00 | 0.00 | 73 | 1013.4 |
| 20260508101516 | 6 | 213 | 8.0 | 12.9 | 0.00 | 0.00 | 0.00 | 72 | 1013.4 |
| 20260508101004 | 6 | 217 | 9.7 | 14.5 | 0.00 | 0.00 | 0.00 | 71 | 1013.4 |
| 20260508100507 | 6 | 217 | 8.0 | 14.5 | 0.00 | 0.00 | 0.00 | 71 | 1013.4 |
| 20260508100017 | 6 | 215 | 9.7 | 12.9 | 0.00 | 0.00 | 0.00 | 71 | 1013.4 |
| 20260508095504 | 6 | 229 | 8.0 | 11.3 | 0.00 | 0.00 | 0.00 | 72 | 1013.3 |
| 20260508095010 | 6 | 226 | 6.4 | 11.3 | 0.00 | 0.00 | 0.00 | 71 | 1013.3 |
| 20260508094521 | 6 | 220 | 8.0 | 11.3 | 0.00 | 0.00 | 0.00 | 72 | 1013.3 |
| 20260508094006 | 6 | 219 | 8.0 | 9.7 | 0.00 | 0.00 | 0.00 | 72 | 1013.3 |
| 20260508093503 | 6 | 223 | 6.4 | 9.7 | 0.00 | 0.00 | 0.00 | 72 | 1013.4 |
| 20260508093020 | 6 | 213 | 6.4 | 9.7 | 0.00 | 0.00 | 0.00 | 71 | 1013.4 |
| 20260508092507 | 6 | 202 | 8.0 | 11.3 | 0.00 | 0.00 | 0.00 | 71 | 1013.5 |
| 20260508092006 | 6 | 206 | 8.0 | 11.3 | 0.00 | 0.00 | 0.00 | 70 | 1013.5 |
| 20260508091530 | 6 | 210 | 8.0 | 12.9 | 0.00 | 0.00 | 0.00 | 71 | 1013.5 |
| 20260508091006 | 6 | 215 | 6.4 | 12.9 | 0.00 | 0.00 | 0.00 | 71 | 1013.5 |
| 20260508090503 | 6 | 225 | 6.4 | 11.3 | 0.00 | 0.00 | 0.00 | 70 | 1013.5 |
| 20260508090015 | 6 | 215 | 6.4 | 11.3 | 0.00 | 0.00 | 0.00 | 70 | 1013.5 |
| 20260508085502 | 7 | 227 | 6.4 | 11.3 | 0.00 | 0.00 | 0.00 | 69 | 1013.5 |
| 20260508085005 | 7 | 205 | 6.4 | 11.3 | 0.00 | 0.00 | 0.00 | 68 | 1013.4 |
| 20260508084505 | 7 | 218 | 6.4 | 11.3 | 0.00 | 0.00 | 0.00 | 68 | 1013.4 |
| 20260508084004 | 7 | 215 | 6.4 | 11.3 | 0.00 | 0.00 | 0.00 | 67 | 1013.4 |
| 20260508083504 | 7 | 218 | 8.0 | 12.9 | 0.00 | 0.00 | 0.00 | 67 | 1013.4 |
| 20260508083016 | 7 | 226 | 8.0 | 12.9 | 0.00 | 0.00 | 0.00 | 66 | 1013.4 |
| 20260508082506 | 7 | 208 | 8.0 | 12.9 | 0.00 | 0.00 | 0.00 | 67 | 1013.4 |
| 20260508082003 | 7 | 225 | 8.0 | 12.9 | 0.00 | 0.00 | 0.00 | 67 | 1013.5 |
| 20260508081516 | 7 | 217 | 8.0 | 12.9 | 0.00 | 0.00 | 0.00 | 66 | 1013.4 |
| 20260508081004 | 7 | 215 | 8.0 | 12.9 | 0.00 | 0.00 | 0.00 | 66 | 1013.4 |
| 20260508080506 | 7 | 206 | 8.0 | 12.9 | 0.00 | 0.00 | 0.00 | 66 | 1013.3 |
| 20260508080020 | 7 | 221 | 8.0 | 14.5 | 0.00 | 0.00 | 0.00 | 66 | 1013.3 |
| 20260508075505 | 7 | 232 | 8.0 | 14.5 | 0.00 | 0.00 | 0.00 | 65 | 1013.4 |
| 20260508075007 | 7 | 217 | 9.7 | 14.5 | 0.00 | 0.00 | 0.00 | 65 | 1013.4 |
| 20260508074519 | 7 | 236 | 9.7 | 14.5 | 0.00 | 0.00 | 0.00 | 65 | 1013.4 |
| 20260508074003 | 7 | 251 | 9.7 | 14.5 | 0.00 | 0.00 | 0.00 | 64 | 1013.4 |
| 20260508073503 | 7 | 234 | 9.7 | 14.5 | 0.00 | 0.00 | 0.00 | 64 | 1013.4 |
| 20260508073005 | 7 | 224 | 9.7 | 19.3 | 0.00 | 0.00 | 0.00 | 64 | 1013.4 |
| 20260508072502 | 8 | 237 | 9.7 | 19.3 | 0.00 | 0.00 | 0.00 | 64 | 1013.4 |
| 20260508072003 | 8 | 233 | 11.3 | 17.7 | 0.00 | 0.00 | 0.00 | 64 | 1013.4 |
| 20260508071512 | 8 | 230 | 11.3 | 19.3 | 0.00 | 0.00 | 0.00 | 64 | 1013.5 |
| 20260508071007 | 8 | 226 | 9.7 | 19.3 | 0.00 | 0.00 | 0.00 | 63 | 1013.5 |
| 20260508070506 | 8 | 228 | 12.9 | 19.3 | 0.00 | 0.00 | 0.00 | 62 | 1013.6 |
| 20260508070011 | 8 | 228 | 12.9 | 22.5 | 0.00 | 0.00 | 0.00 | 62 | 1013.6 |
| 20260508065506 | 8 | 244 | 12.9 | 22.5 | 0.00 | 0.00 | 0.00 | 61 | 1013.6 |
| 20260508065007 | 8 | 221 | 11.3 | 20.9 | 0.00 | 0.00 | 0.00 | 62 | 1013.6 |
| 20260508064510 | 8 | 229 | 12.9 | 20.9 | 0.00 | 0.00 | 0.00 | 62 | 1013.6 |
| 20260508064003 | 8 | 223 | 12.9 | 19.3 | 0.00 | 0.00 | 0.00 | 63 | 1013.7 |
| 20260508063505 | 8 | 206 | 11.3 | 19.3 | 0.00 | 0.00 | 0.00 | 63 | 1013.7 |
| 20260508063026 | 8 | 224 | 11.3 | 16.1 | 0.00 | 0.00 | 0.00 | 63 | 1013.7 |
| 20260508062504 | 8 | 227 | 9.7 | 16.1 | 0.00 | 0.00 | 0.00 | 64 | 1013.8 |
| 20260508062005 | 8 | 220 | 9.7 | 16.1 | 0.00 | 0.00 | 0.00 | 64 | 1013.8 |
| 20260508061510 | 8 | 219 | 9.7 | 16.1 | 0.00 | 0.00 | 0.00 | 64 | 1013.8 |
| 20260508061004 | 8 | 215 | 9.7 | 16.1 | 0.00 | 0.00 | 0.00 | 65 | 1013.8 |
| 20260508060502 | 8 | 211 | 9.7 | 14.5 | 0.00 | 0.00 | 0.00 | 66 | 1013.8 |
| 20260508060019 | 8 | 208 | 9.7 | 12.9 | 0.00 | 0.00 | 0.00 | 67 | 1013.9 |
| 20260508055503 | 7 | 206 | 8.0 | 11.3 | 0.00 | 0.00 | 0.00 | 67 | 1013.9 |
| 20260508055003 | 7 | 215 | 6.4 | 11.3 | 0.00 | 0.00 | 0.00 | 68 | 1013.9 |
| 20260508054521 | 7 | 219 | 6.4 | 12.9 | 0.00 | 0.00 | 0.00 | 67 | 1013.8 |
| 20260508054010 | 7 | 202 | 9.7 | 12.9 | 0.00 | 0.00 | 0.00 | 68 | 1013.9 |
| 20260508053507 | 7 | 210 | 8.0 | 11.3 | 0.00 | 0.00 | 0.00 | 67 | 1013.9 |
| 20260508053012 | 8 | 213 | 8.0 | 11.3 | 0.00 | 0.00 | 0.00 | 67 | 1013.9 |
| 20260508052507 | 8 | 207 | 9.7 | 12.9 | 0.00 | 0.00 | 0.00 | 67 | 1013.9 |
| 20260508052013 | 8 | 213 | 9.7 | 12.9 | 0.00 | 0.00 | 0.00 | 67 | 1014.0 |
| 20260508051508 | 7 | 202 | 8.0 | 11.3 | 0.00 | 0.00 | 0.00 | 67 | 1014.0 |
| 20260508051003 | 7 | 214 | 8.0 | 9.7 | 0.00 | 0.00 | 0.00 | 67 | 1014.0 |
| 20260508050503 | 7 | 200 | 8.0 | 11.3 | 0.00 | 0.00 | 0.00 | 67 | 1013.9 |
| 20260508050014 | 8 | 202 | 9.7 | 9.7 | 0.00 | 0.00 | 0.00 | 67 | 1013.9 |
| 20260508045502 | 8 | 198 | 8.0 | 11.3 | 0.00 | 0.00 | 0.00 | 66 | 1013.9 |
| 20260508045003 | 8 | 207 | 8.0 | 11.3 | 0.00 | 0.00 | 0.00 | 66 | 1014.0 |
| 20260508044518 | 8 | 208 | 8.0 | 9.7 | 0.00 | 0.00 | 0.00 | 65 | 1014.0 |
| 20260508044004 | 8 | 211 | 8.0 | 11.3 | 0.00 | 0.00 | 0.00 | 65 | 1013.9 |
| 20260508043503 | 8 | 208 | 8.0 | 11.3 | 0.00 | 0.00 | 0.00 | 66 | 1014.0 |
| 20260508043021 | 8 | 200 | 8.0 | 9.7 | 0.00 | 0.00 | 0.00 | 67 | 1013.9 |
| 20260508042507 | 8 | 206 | 8.0 | 11.3 | 0.00 | 0.00 | 0.00 | 66 | 1013.9 |
| 20260508042011 | 8 | 207 | 8.0 | 11.3 | 0.00 | 0.00 | 0.00 | 65 | 1013.9 |
| 20260508041520 | 8 | 217 | 8.0 | 11.3 | 0.00 | 0.00 | 0.00 | 65 | 1014.0 |
| 20260508041006 | 8 | 204 | 9.7 | 11.3 | 0.00 | 0.00 | 0.00 | 67 | 1014.0 |
| 20260508040504 | 8 | 213 | 8.0 | 11.3 | 0.00 | 0.00 | 0.00 | 66 | 1014.0 |
| 20260508040011 | 8 | 205 | 8.0 | 11.3 | 0.00 | 0.00 | 0.00 | 66 | 1014.1 |
| 20260508035503 | 8 | 202 | 8.0 | 12.9 | 0.00 | 0.00 | 0.00 | 66 | 1014.0 |
| 20260508035004 | 8 | 215 | 8.0 | 12.9 | 0.00 | 0.00 | 0.00 | 64 | 1014.0 |
| 20260508034522 | 8 | 205 | 8.0 | 11.3 | 0.00 | 0.00 | 0.00 | 64 | 1014.1 |
| 20260508034003 | 9 | 209 | 8.0 | 11.3 | 0.00 | 0.00 | 0.00 | 61 | 1014.1 |
| 20260508033506 | 9 | 222 | 6.4 | 12.9 | 0.00 | 0.00 | 0.00 | 61 | 1014.0 |
| 20260508033021 | 9 | 220 | 8.0 | 12.9 | 0.00 | 0.00 | 0.00 | 61 | 1014.0 |
| 20260508032504 | 9 | 208 | 8.0 | 12.9 | 0.00 | 0.00 | 0.00 | 61 | 1014.0 |
| 20260508032006 | 9 | 215 | 9.7 | 12.9 | 0.00 | 0.00 | 0.00 | 60 | 1013.9 |
| 20260508031522 | 9 | 229 | 8.0 | 12.9 | 0.00 | 0.00 | 0.00 | 60 | 1013.9 |
| 20260508031003 | 9 | 212 | 9.7 | 12.9 | 0.00 | 0.00 | 0.00 | 62 | 1013.9 |
| 20260508030506 | 8 | 207 | 6.4 | 8.0 | 0.00 | 0.00 | 0.00 | 66 | 1013.9 |
| 20260508030027 | 8 | 208 | 6.4 | 8.0 | 0.00 | 0.00 | 0.00 | 69 | 1013.9 |
| 20260508025505 | 8 | 203 | 4.8 | 4.8 | 0.00 | 0.00 | 0.00 | 66 | 1014.1 |
| 20260508025005 | 8 | 213 | 3.2 | 6.4 | 0.00 | 0.00 | 0.00 | 63 | 1014.1 |
| 20260508024519 | 9 | 207 | 3.2 | 8.0 | 0.00 | 0.00 | 0.00 | 60 | 1014.0 |
| 20260508024003 | 9 | 205 | 4.8 | 8.0 | 0.00 | 0.00 | 0.00 | 60 | 1014.0 |
| 20260508023503 | 9 | 217 | 4.8 | 8.0 | 0.00 | 0.00 | 0.00 | 59 | 1014.0 |
| 20260508023017 | 9 | 208 | 4.8 | 8.0 | 0.00 | 0.00 | 0.00 | 63 | 1014.0 |
| 20260508022507 | 9 | 207 | 4.8 | 8.0 | 0.00 | 0.00 | 0.00 | 62 | 1014.0 |
| 20260508022004 | 9 | 208 | 4.8 | 6.4 | 0.00 | 0.00 | 0.00 | 62 | 1014.0 |
| 20260508021530 | 10 | 225 | 3.2 | 8.0 | 0.00 | 0.00 | 0.00 | 60 | 1014.1 |
| 20260508021011 | 10 | 222 | 3.2 | 8.0 | 0.00 | 0.00 | 0.00 | 60 | 1014.2 |
| 20260508020508 | 9 | 213 | 3.2 | 6.4 | 0.00 | 0.00 | 0.00 | 69 | 1014.1 |
| 20260508020017 | 8 | 198 | 4.8 | 6.4 | 0.00 | 0.00 | 0.00 | 68 | 1014.1 |
| 20260508015507 | 10 | 202 | 4.8 | 4.8 | 0.00 | 0.00 | 0.00 | 62 | 1014.1 |
| 20260508015010 | 9 | 217 | 3.2 | 4.8 | 0.00 | 0.00 | 0.00 | 71 | 1014.1 |
| 20260508014514 | 8 | 214 | 3.2 | 3.2 | 0.00 | 0.00 | 0.00 | 71 | 1014.1 |
| 20260508014009 | 9 | 195 | 1.6 | 3.2 | 0.00 | 0.00 | 0.00 | 71 | 1013.9 |
| 20260508013507 | 9 | 227 | 0.0 | 3.2 | 0.00 | 0.00 | 0.00 | 67 | 1014.0 |
| 20260508013013 | 9 | 240 | 1.6 | 3.2 | 0.00 | 0.00 | 0.00 | 67 | 1014.0 |
| 20260508012503 | 9 | 240 | 0.0 | 1.6 | 0.00 | 0.00 | 0.00 | 66 | 1014.0 |
| 20260508012009 | 8 | 240 | 1.6 | 3.2 | 0.00 | 0.00 | 0.00 | 68 | 1013.9 |
| 20260508011527 | 9 | 240 | 1.6 | 3.2 | 0.00 | 0.00 | 0.00 | 71 | 1013.8 |
| 20260508011004 | 9 | 240 | 0.0 | 0.0 | 0.00 | 0.00 | 0.00 | 69 | 1013.8 |
| 20260508010505 | 9 | 240 | 0.0 | 0.0 | 0.00 | 0.00 | 0.00 | 67 | 1013.9 |
| 20260508010036 | 9 | 240 | 0.0 | 0.0 | 0.00 | 0.00 | 0.00 | 58 | 1013.9 |
| 20260508005508 | 10 | 240 | 0.0 | 0.0 | 0.00 | 0.00 | 0.00 | 58 | 1013.8 |
| 20260508005008 | 10 | 240 | 0.0 | 0.0 | 0.00 | 0.00 | 0.00 | 59 | 1013.7 |
| 20260508004522 | 10 | 240 | 0.0 | 0.0 | 0.00 | 0.00 | 0.00 | 56 | 1013.7 |
| 20260508004016 | 10 | 240 | 0.0 | 0.0 | 0.00 | 0.00 | 0.00 | 54 | 1013.7 |
| 20260508003510 | 11 | 240 | 0.0 | 0.0 | 0.00 | 0.00 | 0.00 | 52 | 1013.6 |
| 20260508003019 | 11 | 240 | 0.0 | 3.2 | 0.00 | 0.00 | 0.00 | 53 | 1013.6 |
| 20260508002509 | 11 | 240 | 0.0 | 3.2 | 0.00 | 0.00 | 0.00 | 56 | 1013.5 |
| 20260508002010 | 11 | 240 | 0.0 | 3.2 | 0.00 | 0.00 | 0.00 | 55 | 1013.5 |
| 20260508001518 | 11 | 240 | 0.0 | 3.2 | 0.00 | 0.00 | 0.00 | 51 | 1013.5 |
| 20260508001004 | 12 | 240 | 0.0 | 3.2 | 0.00 | 0.00 | 0.00 | 51 | 1013.5 |
| 20260508000508 | 12 | 221 | 0.0 | 8.0 | 0.00 | 0.00 | 0.00 | 47 | 1013.5 |
| 20260508000019 | 12 | 213 | 0.0 | 8.0 | 0.00 | 0.00 | 0.00 | 45 | 1013.5 |
| 20260507235509 | 12 | 352 | 1.6 | 3.2 | 0.00 | 0.00 | 0.00 | 48 | 1013.5 |
| 20260507235007 | 12 | 316 | 0.0 | 3.2 | 0.00 | 0.00 | 0.00 | 45 | 1013.4 |
| 20260507234525 | 12 | 330 | 1.6 | 4.8 | 0.00 | 0.00 | 0.00 | 44 | 1013.4 |
| 20260507234007 | 12 | 253 | 1.6 | 4.8 | 0.00 | 0.00 | 0.00 | 42 | 1013.4 |
| 20260507233506 | 13 | 311 | 0.0 | 4.8 | 0.00 | 0.00 | 0.00 | 44 | 1013.3 |
| 20260507233033 | 13 | 346 | 3.2 | 6.4 | 0.00 | 0.00 | 0.00 | 43 | 1013.3 |
| 20260507232507 | 13 | 343 | 1.6 | 6.4 | 0.00 | 0.00 | 0.00 | 43 | 1013.2 |